| time (UTC) | temp F | wind direction | speed MPH | gust MPH | rain 1hr in | rain 24hr in | rain mn in | humidity % | barometer mb |
| 20260507203016 | 39 | 59 | 8.0 | 8.0 | 0.00 | 0.00 | 0.00 | 78 | 1010.5 |
| 20260507203006 | 39 | 59 | 6.0 | 9.0 | 0.00 | 0.00 | 0.00 | 78 | 1009.4 |
| 20260507202016 | 39 | 79 | 6.0 | 8.0 | 0.00 | 0.00 | 0.00 | 78 | 1010.6 |
| 20260507201516 | 39 | 62 | 6.0 | 7.0 | 0.00 | 0.00 | 0.00 | 77 | 1010.6 |
| 20260507201508 | 39 | 62 | 5.0 | 6.0 | 0.00 | 0.00 | 0.00 | 76 | 1009.6 |
| 20260507201039 | 40 | 62 | 5.0 | 7.0 | 0.00 | 0.00 | 0.00 | 77 | 1010.6 |
| 20260507200516 | 40 | 62 | 5.0 | 7.0 | 0.00 | 0.00 | 0.00 | 76 | 1010.7 |
| 20260507200016 | 40 | 62 | 4.0 | 7.0 | 0.00 | 0.00 | 0.00 | 74 | 1010.7 |
| 20260507200012 | 40 | 62 | 4.0 | 6.0 | 0.00 | 0.00 | 0.00 | 73 | 1010.0 |
| 20260507195516 | 40 | 62 | 5.0 | 7.0 | 0.00 | 0.00 | 0.00 | 75 | 1010.7 |
| 20260507195038 | 40 | 62 | 5.0 | 7.0 | 0.00 | 0.00 | 0.00 | 74 | 1010.7 |
| 20260507194538 | 40 | 85 | 5.0 | 6.0 | 0.00 | 0.00 | 0.00 | 74 | 1010.8 |
| 20260507194504 | 40 | 85 | 4.0 | 6.0 | 0.00 | 0.00 | 0.00 | 73 | 1010.2 |
| 20260507194016 | 40 | 85 | 5.0 | 6.0 | 0.00 | 0.00 | 0.00 | 73 | 1010.8 |
| 20260507193538 | 40 | 85 | 4.0 | 5.0 | 0.00 | 0.00 | 0.00 | 74 | 1010.9 |
| 20260507193017 | 40 | 85 | 3.0 | 5.0 | 0.00 | 0.00 | 0.00 | 75 | 1010.9 |
| 20260507193004 | 40 | 85 | 3.0 | 4.0 | 0.00 | 0.00 | 0.00 | 74 | 1010.7 |
| 20260507192516 | 39 | 341 | 3.0 | 4.0 | 0.00 | 0.00 | 0.00 | 74 | 1011.0 |
| 20260507191506 | 39 | 341 | 1.0 | 3.0 | 0.00 | 0.00 | 0.00 | 74 | 1010.8 |
| 20260507191017 | 39 | 341 | 1.0 | 3.0 | 0.00 | 0.00 | 0.00 | 76 | 1011.2 |
| 20260507190516 | 39 | 341 | 1.0 | 2.0 | 0.00 | 0.00 | 0.00 | 76 | 1011.3 |
| 20260507190038 | 39 | 341 | 1.0 | 3.0 | 0.00 | 0.00 | 0.00 | 76 | 1011.4 |
| 20260507190010 | 39 | 341 | 0.0 | 3.0 | 0.00 | 0.00 | 0.00 | 75 | 1010.0 |
| 20260507185539 | 39 | 341 | 1.0 | 3.0 | 0.00 | 0.00 | 0.00 | 75 | 1011.4 |
| 20260507185016 | 39 | 341 | 2.0 | 4.0 | 0.00 | 0.00 | 0.00 | 76 | 1011.4 |
| 20260507184516 | 39 | 341 | 2.0 | 4.0 | 0.00 | 0.00 | 0.00 | 76 | 1011.4 |
| 20260507184016 | 39 | 341 | 2.0 | 3.0 | 0.00 | 0.00 | 0.00 | 77 | 1011.4 |
| 20260507183538 | 38 | 341 | 2.0 | 5.0 | 0.00 | 0.00 | 0.00 | 77 | 1011.4 |
| 20260507183016 | 38 | 341 | 3.0 | 5.0 | 0.00 | 0.00 | 0.00 | 77 | 1011.5 |
| 20260507183010 | 38 | 341 | 3.0 | 5.0 | 0.00 | 0.00 | 0.00 | 77 | 1010.2 |
| 20260507182516 | 38 | 341 | 4.0 | 5.0 | 0.00 | 0.00 | 0.00 | 77 | 1011.5 |
| 20260507182016 | 39 | 341 | 4.0 | 5.0 | 0.00 | 0.00 | 0.00 | 76 | 1011.6 |
| 20260507181516 | 39 | 341 | 4.0 | 6.0 | 0.00 | 0.00 | 0.00 | 76 | 1011.6 |
| 20260507181504 | 39 | 341 | 3.0 | 7.0 | 0.00 | 0.00 | 0.00 | 76 | 1010.5 |
| 20260507181038 | 39 | 341 | 5.0 | 6.0 | 0.00 | 0.00 | 0.00 | 76 | 1011.6 |
| 20260507180516 | 39 | 340 | 5.0 | 8.0 | 0.00 | 0.00 | 0.00 | 75 | 1011.6 |
| 20260507180006 | 39 | 340 | 5.0 | 9.0 | 0.00 | 0.00 | 0.00 | 73 | 1010.4 |
| 20260507175539 | 40 | 346 | 6.0 | 8.0 | 0.00 | 0.00 | 0.00 | 72 | 1011.6 |
| 20260507175016 | 40 | 334 | 3.0 | 5.0 | 0.00 | 0.00 | 0.00 | 72 | 1011.7 |
| 20260507174517 | 40 | 334 | 3.0 | 6.0 | 0.00 | 0.00 | 0.00 | 73 | 1011.7 |
| 20260507174514 | 40 | 334 | 2.0 | 6.0 | 0.00 | 0.00 | 0.00 | 72 | 1010.5 |
| 20260507174027 | 40 | 334 | 5.0 | 9.0 | 0.00 | 0.00 | 0.00 | 72 | 1011.8 |
| 20260507173516 | 40 | 334 | 5.0 | 9.0 | 0.00 | 0.00 | 0.00 | 73 | 1011.8 |
| 20260507173030 | 40 | 348 | 4.0 | 8.0 | 0.00 | 0.00 | 0.00 | 73 | 1010.4 |
| 20260507173016 | 40 | 348 | 5.0 | 7.0 | 0.00 | 0.00 | 0.00 | 74 | 1011.7 |
| 20260507172516 | 40 | 348 | 3.0 | 4.0 | 0.00 | 0.00 | 0.00 | 74 | 1011.8 |
| 20260507172038 | 39 | 348 | 1.0 | 3.0 | 0.00 | 0.00 | 0.00 | 78 | 1011.9 |
| 20260507171523 | 39 | 348 | 0.0 | 10.0 | 0.00 | 0.00 | 0.00 | 78 | 1010.8 |
| 20260507171516 | 39 | 348 | 1.0 | 7.0 | 0.00 | 0.00 | 0.00 | 79 | 1012.0 |
| 20260507171017 | 39 | 348 | 3.0 | 10.0 | 0.00 | 0.00 | 0.00 | 79 | 1012.0 |
| 20260507170528 | 39 | 360 | 8.0 | 10.0 | 0.00 | 0.00 | 0.00 | 78 | 1011.8 |
| 20260507170038 | 39 | 12 | 8.0 | 10.0 | 0.00 | 0.00 | 0.00 | 76 | 1011.9 |
| 20260507170005 | 39 | 9 | 8.0 | 11.0 | 0.00 | 0.00 | 0.00 | 75 | 1010.7 |
| 20260507165516 | 40 | 327 | 5.0 | 11.0 | 0.00 | 0.00 | 0.00 | 77 | 1011.9 |
| 20260507165016 | 40 | 5 | 9.0 | 11.0 | 0.00 | 0.00 | 0.00 | 75 | 1011.9 |
| 20260507164516 | 40 | 5 | 9.0 | 11.0 | 0.00 | 0.00 | 0.00 | 75 | 1012.0 |
| 20260507164502 | 40 | 347 | 10.0 | 12.0 | 0.00 | 0.00 | 0.00 | 75 | 1011.0 |
| 20260507164016 | 40 | 340 | 8.0 | 13.0 | 0.00 | 0.00 | 0.00 | 76 | 1012.0 |
| 20260507163516 | 40 | 339 | 10.0 | 13.0 | 0.00 | 0.00 | 0.00 | 73 | 1012.0 |
| 20260507163038 | 41 | 355 | 9.0 | 11.0 | 0.00 | 0.00 | 0.00 | 72 | 1012.0 |
| 20260507163007 | 41 | 350 | 9.0 | 12.0 | 0.00 | 0.00 | 0.00 | 73 | 1010.9 |
| 20260507162538 | 41 | 319 | 6.0 | 11.0 | 0.00 | 0.00 | 0.00 | 70 | 1012.1 |
| 20260507162016 | 41 | 336 | 9.0 | 11.0 | 0.00 | 0.00 | 0.00 | 69 | 1012.1 |
| 20260507161517 | 42 | 330 | 8.0 | 16.0 | 0.00 | 0.00 | 0.00 | 67 | 1012.1 |
| 20260507161504 | 42 | 329 | 9.0 | 17.0 | 0.00 | 0.00 | 0.00 | 67 | 1011.2 |
| 20260507160516 | 43 | 262 | 10.0 | 14.0 | 0.00 | 0.00 | 0.00 | 58 | 1012.2 |
| 20260507160004 | 42 | 274 | 10.0 | 21.0 | 0.00 | 0.00 | 0.00 | 62 | 1011.4 |
| 20260507155517 | 42 | 297 | 8.0 | 14.0 | 0.00 | 0.00 | 0.00 | 67 | 1012.2 |
| 20260507155016 | 43 | 346 | 5.0 | 12.0 | 0.00 | 0.00 | 0.00 | 64 | 1012.1 |
| 20260507154508 | 42 | 322 | 1.0 | 10.0 | 0.00 | 0.00 | 0.00 | 66 | 1011.8 |
| 20260507153049 | 43 | 323 | 5.0 | 10.0 | 0.00 | 0.00 | 0.00 | 67 | 1012.3 |
| 20260507153002 | 43 | 331 | 4.0 | 11.0 | 0.00 | 0.00 | 0.00 | 64 | 1012.2 |
| 20260507152527 | 42 | 257 | 6.0 | 10.0 | 0.00 | 0.00 | 0.00 | 62 | 1012.3 |
| 20260507152027 | 42 | 317 | 4.0 | 8.0 | 0.00 | 0.00 | 0.00 | 69 | 1012.3 |
| 20260507151517 | 41 | 320 | 5.0 | 8.0 | 0.00 | 0.00 | 0.00 | 68 | 1012.3 |
| 20260507151503 | 41 | 320 | 5.0 | 9.0 | 0.00 | 0.00 | 0.00 | 68 | 1012.0 |
| 20260507151039 | 41 | 351 | 4.0 | 7.0 | 0.00 | 0.00 | 0.00 | 69 | 1012.4 |
| 20260507150516 | 40 | 355 | 2.0 | 6.0 | 0.00 | 0.00 | 0.00 | 71 | 1012.4 |
| 20260507150040 | 40 | 5 | 4.0 | 10.0 | 0.00 | 0.00 | 0.00 | 72 | 1012.4 |
| 20260507150007 | 40 | 5 | 4.0 | 11.0 | 0.00 | 0.00 | 0.00 | 71 | 1011.5 |
| 20260507145550 | 40 | 334 | 8.0 | 10.0 | 0.00 | 0.00 | 0.00 | 69 | 1012.4 |
| 20260507145016 | 40 | 348 | 6.0 | 8.0 | 0.00 | 0.00 | 0.00 | 72 | 1012.4 |
| 20260507144518 | 40 | 355 | 4.0 | 6.0 | 0.00 | 0.00 | 0.00 | 70 | 1011.1 |
| 20260507144039 | 40 | 355 | 3.0 | 7.0 | 0.00 | 0.00 | 0.00 | 71 | 1012.4 |
| 20260507143538 | 40 | 355 | 5.0 | 8.0 | 0.00 | 0.00 | 0.00 | 71 | 1012.4 |
| 20260507143028 | 41 | 360 | 6.0 | 8.0 | 0.00 | 0.00 | 0.00 | 71 | 1012.4 |
| 20260507143010 | 41 | 5 | 6.0 | 9.0 | 0.00 | 0.00 | 0.00 | 71 | 1011.2 |
| 20260507142538 | 42 | 355 | 6.0 | 7.0 | 0.00 | 0.00 | 0.00 | 69 | 1012.4 |
| 20260507141517 | 42 | 299 | 5.0 | 9.0 | 0.00 | 0.00 | 0.00 | 61 | 1012.4 |
| 20260507141503 | 42 | 302 | 5.0 | 10.0 | 0.00 | 0.00 | 0.00 | 60 | 1011.1 |
| 20260507141017 | 42 | 326 | 4.0 | 10.0 | 0.00 | 0.00 | 0.00 | 60 | 1012.3 |
| 20260507140516 | 42 | 289 | 5.0 | 11.0 | 0.00 | 0.00 | 0.00 | 59 | 1012.4 |
| 20260507140038 | 42 | 238 | 8.0 | 11.0 | 0.00 | 0.00 | 0.00 | 60 | 1012.5 |
| 20260507140004 | 42 | 237 | 7.0 | 12.0 | 0.00 | 0.00 | 0.00 | 59 | 1011.3 |
| 20260507135016 | 42 | 223 | 4.0 | 9.0 | 0.00 | 0.00 | 0.00 | 61 | 1012.4 |
| 20260507134517 | 42 | 244 | 6.0 | 9.0 | 0.00 | 0.00 | 0.00 | 62 | 1012.4 |
| 20260507134507 | 42 | 269 | 6.0 | 10.0 | 0.00 | 0.00 | 0.00 | 61 | 1011.4 |
| 20260507134039 | 42 | 273 | 5.0 | 8.0 | 0.00 | 0.00 | 0.00 | 62 | 1012.5 |
| 20260507133007 | 41 | 206 | 2.0 | 7.0 | 0.00 | 0.00 | 0.00 | 65 | 1011.3 |
| 20260507132517 | 41 | 206 | 3.0 | 9.0 | 0.00 | 0.00 | 0.00 | 65 | 1012.4 |
| 20260507132039 | 41 | 259 | 7.0 | 9.0 | 0.00 | 0.00 | 0.00 | 65 | 1012.4 |
| 20260507131517 | 40 | 213 | 5.0 | 8.0 | 0.00 | 0.00 | 0.00 | 66 | 1012.4 |
| 20260507131512 | 40 | 215 | 5.0 | 9.0 | 0.00 | 0.00 | 0.00 | 66 | 1011.3 |
| 20260507130517 | 40 | 203 | 4.0 | 8.0 | 0.00 | 0.00 | 0.00 | 68 | 1012.5 |
| 20260507130039 | 40 | 189 | 5.0 | 7.0 | 0.00 | 0.00 | 0.00 | 69 | 1012.5 |
| 20260507130003 | 40 | 209 | 4.0 | 8.0 | 0.00 | 0.00 | 0.00 | 69 | 1011.4 |
| 20260507125039 | 39 | 217 | 4.0 | 7.0 | 0.00 | 0.00 | 0.00 | 72 | 1012.5 |
| 20260507124505 | 39 | 236 | 4.0 | 8.0 | 0.00 | 0.00 | 0.00 | 72 | 1011.3 |
| 20260507124016 | 38 | 229 | 5.0 | 7.0 | 0.00 | 0.00 | 0.00 | 73 | 1012.5 |
| 20260507123517 | 38 | 209 | 3.0 | 6.0 | 0.00 | 0.00 | 0.00 | 74 | 1012.5 |
| 20260507123007 | 38 | 226 | 3.0 | 7.0 | 0.00 | 0.00 | 0.00 | 74 | 1011.2 |
| 20260507122017 | 37 | 213 | 5.0 | 7.0 | 0.00 | 0.00 | 0.00 | 75 | 1012.4 |
| 20260507121517 | 37 | 221 | 4.0 | 7.0 | 0.00 | 0.00 | 0.00 | 76 | 1012.5 |
| 20260507121509 | 37 | 221 | 4.0 | 7.0 | 0.00 | 0.00 | 0.00 | 75 | 1011.2 |
| 20260507121050 | 36 | 207 | 4.0 | 7.0 | 0.00 | 0.00 | 0.00 | 76 | 1012.5 |
| 20260507120017 | 36 | 215 | 4.0 | 7.0 | 0.00 | 0.00 | 0.00 | 75 | 1012.4 |
| 20260507120012 | 36 | 217 | 4.0 | 7.0 | 0.00 | 0.00 | 0.00 | 75 | 1011.1 |
| 20260507115517 | 35 | 204 | 4.0 | 7.0 | 0.00 | 0.00 | 0.00 | 76 | 1012.4 |
| 20260507115039 | 35 | 211 | 4.0 | 7.0 | 0.00 | 0.00 | 0.00 | 77 | 1012.4 |
| 20260507114539 | 34 | 215 | 5.0 | 7.0 | 0.00 | 0.00 | 0.00 | 77 | 1012.3 |
| 20260507114506 | 34 | 212 | 4.0 | 7.0 | 0.00 | 0.00 | 0.00 | 77 | 1011.0 |
| 20260507114017 | 34 | 213 | 4.0 | 6.0 | 0.00 | 0.00 | 0.00 | 78 | 1012.3 |
| 20260507113017 | 33 | 216 | 4.0 | 6.0 | 0.00 | 0.00 | 0.00 | 78 | 1012.2 |
| 20260507113012 | 33 | 215 | 3.0 | 6.0 | 0.00 | 0.00 | 0.00 | 78 | 1011.0 |
| 20260507112517 | 33 | 211 | 5.0 | 6.0 | 0.00 | 0.00 | 0.00 | 79 | 1012.2 |
| 20260507111517 | 33 | 215 | 4.0 | 6.0 | 0.00 | 0.00 | 0.00 | 79 | 1012.2 |
| 20260507111509 | 33 | 215 | 3.0 | 6.0 | 0.00 | 0.00 | 0.00 | 79 | 1010.9 |
| 20260507111028 | 33 | 208 | 4.0 | 6.0 | 0.00 | 0.00 | 0.00 | 79 | 1012.2 |
| 20260507110539 | 33 | 211 | 4.0 | 6.0 | 0.00 | 0.00 | 0.00 | 79 | 1012.1 |
| 20260507110028 | 33 | 211 | 4.0 | 6.0 | 0.00 | 0.00 | 0.00 | 79 | 1012.1 |
| 20260507110012 | 33 | 211 | 4.0 | 6.0 | 0.00 | 0.00 | 0.00 | 78 | 1011.1 |
| 20260507105517 | 32 | 211 | 4.0 | 6.0 | 0.00 | 0.00 | 0.00 | 79 | 1012.1 |
| 20260507105017 | 32 | 213 | 4.0 | 6.0 | 0.00 | 0.00 | 0.00 | 79 | 1012.1 |
| 20260507104516 | 32 | 213 | 3.0 | 6.0 | 0.00 | 0.00 | 0.00 | 79 | 1011.5 |
| 20260507104017 | 32 | 213 | 4.0 | 6.0 | 0.00 | 0.00 | 0.00 | 80 | 1011.9 |
| 20260507103017 | 31 | 213 | 5.0 | 6.0 | 0.00 | 0.00 | 0.00 | 79 | 1011.9 |
| 20260507103004 | 31 | 213 | 5.0 | 6.0 | 0.00 | 0.00 | 0.00 | 79 | 1011.3 |
| 20260507102539 | 31 | 209 | 5.0 | 6.0 | 0.00 | 0.00 | 0.00 | 80 | 1011.9 |
| 20260507102017 | 31 | 209 | 3.0 | 6.0 | 0.00 | 0.00 | 0.00 | 80 | 1011.9 |
| 20260507101517 | 31 | 213 | 5.0 | 6.0 | 0.00 | 0.00 | 0.00 | 79 | 1011.9 |
| 20260507101512 | 31 | 197 | 4.0 | 6.0 | 0.00 | 0.00 | 0.00 | 79 | 1010.6 |
| 20260507100539 | 31 | 212 | 4.0 | 7.0 | 0.00 | 0.00 | 0.00 | 79 | 1012.0 |
| 20260507100009 | 32 | 207 | 3.0 | 7.0 | 0.00 | 0.00 | 0.00 | 78 | 1010.7 |
| 20260507095516 | 31 | 201 | 5.0 | 7.0 | 0.00 | 0.00 | 0.00 | 79 | 1012.0 |
| 20260507095039 | 31 | 198 | 4.0 | 7.0 | 0.00 | 0.00 | 0.00 | 79 | 1012.0 |
| 20260507094539 | 31 | 208 | 5.0 | 7.0 | 0.00 | 0.00 | 0.00 | 79 | 1012.0 |
| 20260507094512 | 31 | 205 | 4.0 | 7.0 | 0.00 | 0.00 | 0.00 | 78 | 1010.8 |
| 20260507094050 | 31 | 214 | 5.0 | 6.0 | 0.00 | 0.00 | 0.00 | 79 | 1012.0 |
| 20260507093517 | 31 | 214 | 5.0 | 6.0 | 0.00 | 0.00 | 0.00 | 79 | 1012.0 |
| 20260507093019 | 32 | 208 | 4.0 | 6.0 | 0.00 | 0.00 | 0.00 | 78 | 1011.4 |
| 20260507093017 | 32 | 208 | 5.0 | 6.0 | 0.00 | 0.00 | 0.00 | 78 | 1012.1 |
| 20260507091529 | 32 | 208 | 3.0 | 5.0 | 0.00 | 0.00 | 0.00 | 77 | 1011.6 |
| 20260507091517 | 32 | 208 | 4.0 | 5.0 | 0.00 | 0.00 | 0.00 | 77 | 1012.2 |
| 20260507091017 | 32 | 225 | 4.0 | 5.0 | 0.00 | 0.00 | 0.00 | 77 | 1012.1 |
| 20260507090517 | 32 | 211 | 3.0 | 5.0 | 0.00 | 0.00 | 0.00 | 77 | 1012.1 |
| 20260507090015 | 32 | 211 | 3.0 | 5.0 | 0.00 | 0.00 | 0.00 | 76 | 1011.6 |
| 20260507085517 | 32 | 211 | 4.0 | 5.0 | 0.00 | 0.00 | 0.00 | 77 | 1012.2 |
| 20260507085050 | 32 | 211 | 4.0 | 5.0 | 0.00 | 0.00 | 0.00 | 77 | 1012.2 |
| 20260507084517 | 32 | 211 | 3.0 | 5.0 | 0.00 | 0.00 | 0.00 | 77 | 1012.2 |
| 20260507084508 | 32 | 211 | 3.0 | 5.0 | 0.00 | 0.00 | 0.00 | 76 | 1010.9 |
| 20260507084017 | 32 | 211 | 4.0 | 5.0 | 0.00 | 0.00 | 0.00 | 77 | 1012.2 |
| 20260507083550 | 32 | 211 | 4.0 | 5.0 | 0.00 | 0.00 | 0.00 | 77 | 1012.2 |
| 20260507083017 | 32 | 211 | 4.0 | 5.0 | 0.00 | 0.00 | 0.00 | 76 | 1012.3 |
| 20260507083014 | 32 | 211 | 4.0 | 5.0 | 0.00 | 0.00 | 0.00 | 76 | 1010.9 |
| 20260507082517 | 33 | 211 | 4.0 | 5.0 | 0.00 | 0.00 | 0.00 | 76 | 1012.3 |
| 20260507081518 | 33 | 211 | 3.0 | 6.0 | 0.00 | 0.00 | 0.00 | 75 | 1011.0 |
| 20260507081039 | 33 | 221 | 4.0 | 6.0 | 0.00 | 0.00 | 0.00 | 75 | 1012.3 |
| 20260507080517 | 33 | 219 | 4.0 | 6.0 | 0.00 | 0.00 | 0.00 | 75 | 1012.3 |
| 20260507080028 | 33 | 225 | 4.0 | 6.0 | 0.00 | 0.00 | 0.00 | 75 | 1012.3 |
| 20260507080005 | 33 | 225 | 4.0 | 6.0 | 0.00 | 0.00 | 0.00 | 74 | 1011.4 |
| 20260507075539 | 33 | 225 | 4.0 | 6.0 | 0.00 | 0.00 | 0.00 | 75 | 1012.3 |
| 20260507075017 | 33 | 225 | 3.0 | 6.0 | 0.00 | 0.00 | 0.00 | 75 | 1012.4 |
| 20260507074539 | 33 | 225 | 4.0 | 6.0 | 0.00 | 0.00 | 0.00 | 75 | 1012.4 |
| 20260507074507 | 33 | 225 | 3.0 | 6.0 | 0.00 | 0.00 | 0.00 | 74 | 1012.0 |
| 20260507073517 | 33 | 225 | 4.0 | 5.0 | 0.00 | 0.00 | 0.00 | 74 | 1012.5 |
| 20260507073017 | 33 | 225 | 3.0 | 5.0 | 0.00 | 0.00 | 0.00 | 74 | 1012.5 |
| 20260507073003 | 33 | 225 | 3.0 | 5.0 | 0.00 | 0.00 | 0.00 | 73 | 1011.8 |
| 20260507072540 | 34 | 225 | 2.0 | 4.0 | 0.00 | 0.00 | 0.00 | 73 | 1012.5 |
| 20260507072017 | 34 | 225 | 3.0 | 4.0 | 0.00 | 0.00 | 0.00 | 73 | 1012.5 |
| 20260507071551 | 34 | 225 | 2.0 | 4.0 | 0.00 | 0.00 | 0.00 | 73 | 1012.5 |
| 20260507071504 | 34 | 225 | 1.0 | 5.0 | 0.00 | 0.00 | 0.00 | 72 | 1011.1 |
| 20260507071018 | 34 | 225 | 2.0 | 5.0 | 0.00 | 0.00 | 0.00 | 72 | 1012.5 |
| 20260507070539 | 34 | 225 | 4.0 | 5.0 | 0.00 | 0.00 | 0.00 | 72 | 1012.5 |
| 20260507070017 | 34 | 198 | 3.0 | 5.0 | 0.00 | 0.00 | 0.00 | 72 | 1012.5 |
| 20260507070008 | 34 | 198 | 2.0 | 5.0 | 0.00 | 0.00 | 0.00 | 72 | 1011.2 |
| 20260507065517 | 34 | 198 | 3.0 | 5.0 | 0.00 | 0.00 | 0.00 | 72 | 1012.6 |
| 20260507065017 | 34 | 211 | 3.0 | 6.0 | 0.00 | 0.00 | 0.00 | 72 | 1012.6 |
| 20260507064528 | 35 | 207 | 4.0 | 6.0 | 0.00 | 0.00 | 0.00 | 72 | 1012.7 |
| 20260507064506 | 35 | 207 | 3.0 | 6.0 | 0.00 | 0.00 | 0.00 | 71 | 1011.5 |
| 20260507064028 | 35 | 200 | 4.0 | 6.0 | 0.00 | 0.00 | 0.00 | 72 | 1012.8 |
| 20260507063539 | 35 | 207 | 4.0 | 6.0 | 0.00 | 0.00 | 0.00 | 72 | 1012.8 |
| 20260507063039 | 35 | 200 | 3.0 | 6.0 | 0.00 | 0.00 | 0.00 | 72 | 1012.8 |
| 20260507063006 | 35 | 200 | 2.0 | 6.0 | 0.00 | 0.00 | 0.00 | 71 | 1011.7 |
| 20260507062517 | 35 | 232 | 2.0 | 5.0 | 0.00 | 0.00 | 0.00 | 72 | 1012.8 |
| 20260507062017 | 36 | 199 | 4.0 | 5.0 | 0.00 | 0.00 | 0.00 | 71 | 1012.8 |
| 20260507061517 | 36 | 193 | 3.0 | 5.0 | 0.00 | 0.00 | 0.00 | 71 | 1012.8 |
| 20260507061502 | 36 | 193 | 3.0 | 5.0 | 0.00 | 0.00 | 0.00 | 70 | 1012.5 |
| 20260507061017 | 36 | 213 | 0.0 | 2.0 | 0.00 | 0.00 | 0.00 | 71 | 1012.8 |
| 20260507060539 | 36 | 213 | 0.0 | 4.0 | 0.00 | 0.00 | 0.00 | 70 | 1012.8 |
| 20260507060026 | 37 | 213 | 2.0 | 4.0 | 0.00 | 0.00 | 0.00 | 69 | 1012.9 |
| 20260507060004 | 37 | 194 | 2.0 | 4.0 | 0.00 | 0.00 | 0.00 | 68 | 1012.2 |
| 20260507055017 | 37 | 325 | 1.0 | 4.0 | 0.00 | 0.00 | 0.00 | 69 | 1012.9 |
| 20260507054539 | 37 | 325 | 1.0 | 4.0 | 0.00 | 0.00 | 0.00 | 69 | 1013.0 |
| 20260507054513 | 37 | 325 | 1.0 | 4.0 | 0.00 | 0.00 | 0.00 | 68 | 1011.9 |
| 20260507054017 | 37 | 325 | 0.0 | 3.0 | 0.00 | 0.00 | 0.00 | 70 | 1013.1 |
| 20260507053517 | 37 | 325 | 2.0 | 5.0 | 0.00 | 0.00 | 0.00 | 70 | 1013.2 |
| 20260507053040 | 37 | 350 | 3.0 | 4.0 | 0.00 | 0.00 | 0.00 | 72 | 1013.2 |
| 20260507053006 | 37 | 238 | 2.0 | 5.0 | 0.00 | 0.00 | 0.00 | 71 | 1011.9 |
| 20260507052539 | 36 | 238 | 3.0 | 5.0 | 0.00 | 0.00 | 0.00 | 71 | 1013.2 |
| 20260507052017 | 36 | 238 | 4.0 | 5.0 | 0.00 | 0.00 | 0.00 | 71 | 1013.3 |
| 20260507051517 | 37 | 238 | 3.0 | 5.0 | 0.00 | 0.00 | 0.00 | 71 | 1013.3 |
| 20260507051510 | 37 | 238 | 3.0 | 5.0 | 0.00 | 0.00 | 0.00 | 70 | 1012.0 |
| 20260507051040 | 37 | 238 | 3.0 | 5.0 | 0.00 | 0.00 | 0.00 | 70 | 1013.3 |
| 20260507050540 | 37 | 238 | 2.0 | 4.0 | 0.00 | 0.00 | 0.00 | 70 | 1013.2 |
| 20260507050017 | 36 | 238 | 3.0 | 4.0 | 0.00 | 0.00 | 0.00 | 70 | 1013.3 |
| 20260507050009 | 36 | 238 | 2.0 | 4.0 | 0.00 | 0.00 | 0.00 | 70 | 1012.1 |
| 20260507045517 | 36 | 238 | 3.0 | 4.0 | 0.00 | 0.00 | 0.00 | 71 | 1013.3 |
| 20260507045018 | 37 | 238 | 2.0 | 4.0 | 0.00 | 0.00 | 0.00 | 70 | 1013.3 |
| 20260507044518 | 37 | 238 | 3.0 | 4.0 | 0.00 | 0.00 | 0.00 | 70 | 1013.3 |
| 20260507044503 | 37 | 238 | 2.0 | 4.0 | 0.00 | 0.00 | 0.00 | 70 | 1012.4 |
| 20260507044029 | 37 | 238 | 3.0 | 4.0 | 0.00 | 0.00 | 0.00 | 70 | 1013.3 |
| 20260507043029 | 37 | 238 | 3.0 | 4.0 | 0.00 | 0.00 | 0.00 | 68 | 1013.3 |
| 20260507043009 | 37 | 238 | 2.0 | 4.0 | 0.00 | 0.00 | 0.00 | 67 | 1012.9 |
| 20260507042517 | 38 | 238 | 3.0 | 4.0 | 0.00 | 0.00 | 0.00 | 67 | 1013.4 |
| 20260507042018 | 38 | 238 | 3.0 | 4.0 | 0.00 | 0.00 | 0.00 | 67 | 1013.4 |
| 20260507041540 | 38 | 238 | 3.0 | 4.0 | 0.00 | 0.00 | 0.00 | 67 | 1013.5 |
| 20260507041506 | 38 | 238 | 2.0 | 4.0 | 0.00 | 0.00 | 0.00 | 67 | 1012.8 |
| 20260507041018 | 38 | 238 | 2.0 | 4.0 | 0.00 | 0.00 | 0.00 | 66 | 1013.4 |
| 20260507040540 | 38 | 238 | 2.0 | 4.0 | 0.00 | 0.00 | 0.00 | 65 | 1013.3 |
| 20260507040017 | 38 | 238 | 2.0 | 4.0 | 0.00 | 0.00 | 0.00 | 64 | 1013.4 |
| 20260507040012 | 38 | 238 | 2.0 | 4.0 | 0.00 | 0.00 | 0.00 | 64 | 1012.0 |
| 20260507035017 | 38 | 238 | 2.0 | 5.0 | 0.00 | 0.00 | 0.00 | 64 | 1013.3 |
| 20260507034517 | 38 | 238 | 3.0 | 5.0 | 0.00 | 0.00 | 0.00 | 64 | 1013.3 |
| 20260507034512 | 38 | 238 | 3.0 | 5.0 | 0.00 | 0.00 | 0.00 | 64 | 1012.0 |
| 20260507034017 | 38 | 238 | 3.0 | 4.0 | 0.00 | 0.00 | 0.00 | 65 | 1013.3 |
| 20260507033517 | 39 | 238 | 2.0 | 3.0 | 0.00 | 0.00 | 0.00 | 66 | 1013.3 |
| 20260507033028 | 39 | 238 | 2.0 | 3.0 | 0.00 | 0.00 | 0.00 | 66 | 1013.3 |
| 20260507033002 | 39 | 238 | 1.0 | 3.0 | 0.00 | 0.00 | 0.00 | 65 | 1012.0 |
| 20260507032539 | 39 | 238 | 1.0 | 3.0 | 0.00 | 0.00 | 0.00 | 65 | 1013.3 |
| 20260507032028 | 39 | 238 | 2.0 | 4.0 | 0.00 | 0.00 | 0.00 | 65 | 1013.4 |
| 20260507031503 | 39 | 238 | 1.0 | 4.0 | 0.00 | 0.00 | 0.00 | 64 | 1012.2 |
| 20260507031017 | 39 | 238 | 3.0 | 4.0 | 0.00 | 0.00 | 0.00 | 65 | 1013.5 |
| 20260507030517 | 39 | 238 | 3.0 | 6.0 | 0.00 | 0.00 | 0.00 | 65 | 1013.4 |
| 20260507030018 | 39 | 238 | 4.0 | 6.0 | 0.00 | 0.00 | 0.00 | 65 | 1013.5 |
| 20260507030006 | 39 | 238 | 3.0 | 6.0 | 0.00 | 0.00 | 0.00 | 65 | 1012.9 |
| 20260507025018 | 39 | 271 | 4.0 | 7.0 | 0.00 | 0.00 | 0.00 | 66 | 1013.5 |
| 20260507024518 | 39 | 247 | 4.0 | 7.0 | 0.00 | 0.00 | 0.00 | 66 | 1013.4 |
| 20260507024513 | 39 | 265 | 4.0 | 8.0 | 0.00 | 0.00 | 0.00 | 66 | 1012.8 |
| 20260507024017 | 39 | 252 | 5.0 | 7.0 | 0.00 | 0.00 | 0.00 | 67 | 1013.3 |
| 20260507023517 | 39 | 242 | 2.0 | 4.0 | 0.00 | 0.00 | 0.00 | 70 | 1013.2 |
| 20260507023017 | 39 | 284 | 3.0 | 4.0 | 0.00 | 0.00 | 0.00 | 71 | 1013.2 |
| 20260507023012 | 39 | 284 | 2.0 | 4.0 | 0.00 | 0.00 | 0.00 | 71 | 1012.3 |
| 20260507022539 | 39 | 284 | 2.0 | 4.0 | 0.00 | 0.00 | 0.00 | 72 | 1013.2 |
| 20260507022017 | 39 | 284 | 3.0 | 5.0 | 0.00 | 0.00 | 0.00 | 73 | 1013.2 |
| 20260507021503 | 39 | 284 | 3.0 | 7.0 | 0.00 | 0.00 | 0.00 | 74 | 1012.0 |
| 20260507021050 | 40 | 266 | 4.0 | 7.0 | 0.00 | 0.00 | 0.00 | 75 | 1013.1 |
| 20260507020539 | 40 | 296 | 6.0 | 7.0 | 0.00 | 0.00 | 0.00 | 76 | 1013.2 |
| 20260507020040 | 40 | 331 | 3.0 | 6.0 | 0.00 | 0.00 | 0.00 | 69 | 1013.1 |
| 20260507020008 | 40 | 311 | 2.0 | 4.0 | 0.00 | 0.00 | 0.00 | 69 | 1011.9 |
| 20260507015540 | 40 | 244 | 3.0 | 4.0 | 0.00 | 0.00 | 0.00 | 68 | 1013.1 |
| 20260507015040 | 40 | 220 | 2.0 | 4.0 | 0.00 | 0.00 | 0.00 | 68 | 1013.1 |
| 20260507014528 | 40 | 220 | 2.0 | 4.0 | 0.00 | 0.00 | 0.00 | 67 | 1013.0 |
| 20260507014515 | 40 | 220 | 2.0 | 4.0 | 0.00 | 0.00 | 0.00 | 67 | 1011.8 |
| 20260507014018 | 40 | 220 | 3.0 | 5.0 | 0.00 | 0.00 | 0.00 | 67 | 1013.0 |
| 20260507013519 | 40 | 214 | 3.0 | 5.0 | 0.00 | 0.00 | 0.00 | 67 | 1012.9 |
| 20260507013030 | 40 | 250 | 2.0 | 8.0 | 0.00 | 0.00 | 0.00 | 67 | 1011.8 |
| 20260507012551 | 40 | 250 | 4.0 | 8.0 | 0.00 | 0.00 | 0.00 | 68 | 1012.9 |
| 20260507012040 | 40 | 253 | 5.0 | 10.0 | 0.00 | 0.00 | 0.00 | 75 | 1012.9 |
| 20260507011540 | 40 | 296 | 7.0 | 10.0 | 0.00 | 0.00 | 0.00 | 76 | 1012.8 |
| 20260507011518 | 40 | 291 | 8.0 | 11.0 | 0.00 | 0.00 | 0.00 | 77 | 1012.1 |
| 20260507010551 | 40 | 296 | 6.0 | 12.0 | 0.00 | 0.00 | 0.00 | 77 | 1012.8 |
| 20260507010040 | 40 | 300 | 8.0 | 12.0 | 0.00 | 0.00 | 0.00 | 75 | 1012.8 |
| 20260507010004 | 40 | 295 | 9.0 | 13.0 | 0.00 | 0.00 | 0.00 | 74 | 1012.4 |
| 20260507005518 | 40 | 310 | 8.0 | 12.0 | 0.00 | 0.00 | 0.00 | 73 | 1012.8 |
| 20260507005018 | 40 | 269 | 6.0 | 8.0 | 0.00 | 0.00 | 0.00 | 67 | 1012.8 |
| 20260507004517 | 40 | 273 | 6.0 | 12.0 | 0.00 | 0.00 | 0.00 | 70 | 1012.7 |
| 20260507004508 | 40 | 270 | 6.0 | 14.0 | 0.00 | 0.00 | 0.00 | 71 | 1012.1 |
| 20260507004018 | 40 | 290 | 7.0 | 14.0 | 0.00 | 0.00 | 0.00 | 76 | 1012.7 |
| 20260507003013 | 40 | 282 | 10.0 | 15.0 | 0.00 | 0.00 | 0.00 | 75 | 1011.5 |
| 20260507002519 | 40 | 313 | 10.0 | 13.0 | 0.00 | 0.00 | 0.00 | 76 | 1012.6 |
| 20260507002018 | 40 | 293 | 9.0 | 14.0 | 0.00 | 0.00 | 0.00 | 74 | 1012.6 |
| 20260507001540 | 40 | 295 | 8.0 | 14.0 | 0.00 | 0.00 | 0.00 | 74 | 1012.6 |
| 20260507001518 | 40 | 285 | 9.0 | 15.0 | 0.00 | 0.00 | 0.00 | 74 | 1011.3 |
| 20260507001018 | 40 | 292 | 10.0 | 17.0 | 0.00 | 0.00 | 0.00 | 75 | 1012.6 |
| 20260507000540 | 40 | 296 | 11.0 | 17.0 | 0.00 | 0.00 | 0.00 | 72 | 1012.6 |
| 20260507000020 | 40 | 313 | 12.0 | 18.0 | 0.00 | 0.00 | 0.00 | 71 | 1011.2 |
| 20260507000017 | 40 | 306 | 12.0 | 17.0 | 0.00 | 0.00 | 0.00 | 71 | 1012.5 |
| 20260506235517 | 40 | 313 | 11.0 | 17.0 | 0.00 | 0.00 | 0.00 | 73 | 1012.5 |
| 20260506235018 | 40 | 294 | 11.0 | 16.0 | 0.00 | 0.00 | 0.00 | 75 | 1012.4 |
| 20260506234551 | 40 | 311 | 10.0 | 14.0 | 0.00 | 0.00 | 0.00 | 75 | 1012.4 |
| 20260506234506 | 40 | 298 | 11.0 | 15.0 | 0.00 | 0.00 | 0.00 | 75 | 1011.2 |
| 20260506233518 | 40 | 299 | 10.0 | 14.0 | 0.00 | 0.00 | 0.00 | 75 | 1012.4 |
| 20260506233040 | 40 | 300 | 9.0 | 15.0 | 0.00 | 0.00 | 0.00 | 76 | 1012.5 |
| 20260506233010 | 40 | 294 | 10.0 | 16.0 | 0.00 | 0.00 | 0.00 | 75 | 1011.4 |
| 20260506232529 | 40 | 301 | 12.0 | 15.0 | 0.00 | 0.00 | 0.00 | 75 | 1012.4 |
| 20260506231515 | 40 | 306 | 11.0 | 16.0 | 0.00 | 0.00 | 0.00 | 75 | 1011.5 |
| 20260506231018 | 40 | 283 | 11.0 | 18.0 | 0.00 | 0.00 | 0.00 | 74 | 1012.5 |
| 20260506230519 | 40 | 296 | 10.0 | 19.0 | 0.00 | 0.00 | 0.00 | 75 | 1012.5 |
| 20260506230003 | 40 | 279 | 13.0 | 19.0 | 0.00 | 0.00 | 0.00 | 75 | 1012.0 |
| 20260506225518 | 40 | 329 | 12.0 | 18.0 | 0.00 | 0.00 | 0.00 | 76 | 1012.4 |
| 20260506225018 | 40 | 284 | 12.0 | 18.0 | 0.00 | 0.00 | 0.00 | 75 | 1012.4 |
| 20260506224518 | 40 | 289 | 10.0 | 18.0 | 0.00 | 0.00 | 0.00 | 75 | 1012.4 |
| 20260506224503 | 40 | 265 | 11.0 | 19.0 | 0.00 | 0.00 | 0.00 | 74 | 1012.1 |
| 20260506224018 | 40 | 292 | 14.0 | 18.0 | 0.00 | 0.00 | 0.00 | 72 | 1012.4 |
| 20260506223518 | 40 | 287 | 11.0 | 18.0 | 0.00 | 0.00 | 0.00 | 73 | 1012.4 |
| 20260506223017 | 41 | 298 | 13.0 | 20.0 | 0.00 | 0.00 | 0.00 | 73 | 1012.4 |
| 20260506223008 | 41 | 294 | 13.0 | 21.0 | 0.00 | 0.00 | 0.00 | 72 | 1011.3 |
| 20260506222529 | 40 | 301 | 14.0 | 20.0 | 0.00 | 0.00 | 0.00 | 74 | 1012.3 |
| 20260506222018 | 40 | 285 | 13.0 | 20.0 | 0.00 | 0.00 | 0.00 | 73 | 1012.4 |
| 20260506221540 | 40 | 293 | 15.0 | 22.0 | 0.00 | 0.00 | 0.00 | 72 | 1012.4 |
| 20260506221512 | 40 | 289 | 16.0 | 23.0 | 0.00 | 0.00 | 0.00 | 72 | 1011.2 |
| 20260506221040 | 41 | 310 | 16.0 | 21.0 | 0.00 | 0.00 | 0.00 | 73 | 1012.4 |
| 20260506220518 | 41 | 280 | 16.0 | 22.0 | 0.00 | 0.00 | 0.00 | 70 | 1012.4 |
| 20260506220040 | 40 | 302 | 16.0 | 22.0 | 0.00 | 0.00 | 0.00 | 72 | 1012.3 |
| 20260506220004 | 40 | 309 | 17.0 | 23.0 | 0.00 | 0.00 | 0.00 | 72 | 1011.0 |
| 20260506215540 | 40 | 321 | 18.0 | 21.0 | 0.00 | 0.00 | 0.00 | 74 | 1012.2 |
| 20260506214507 | 40 | 309 | 13.0 | 19.0 | 0.00 | 0.00 | 0.00 | 73 | 1010.9 |
| 20260506214018 | 40 | 290 | 10.0 | 15.0 | 0.00 | 0.00 | 0.00 | 76 | 1012.1 |
| 20260506213518 | 40 | 307 | 11.0 | 20.0 | 0.00 | 0.00 | 0.00 | 76 | 1012.1 |
| 20260506213018 | 40 | 292 | 14.0 | 20.0 | 0.00 | 0.00 | 0.00 | 72 | 1012.1 |
| 20260506213003 | 40 | 284 | 15.0 | 21.0 | 0.00 | 0.00 | 0.00 | 71 | 1010.9 |
| 20260506212518 | 40 | 311 | 12.0 | 16.0 | 0.00 | 0.00 | 0.00 | 76 | 1012.1 |
| 20260506212018 | 40 | 313 | 10.0 | 16.0 | 0.00 | 0.00 | 0.00 | 74 | 1012.1 |
| 20260506211518 | 40 | 318 | 12.0 | 16.0 | 0.00 | 0.00 | 0.00 | 74 | 1012.1 |
| 20260506211511 | 40 | 300 | 12.0 | 17.0 | 0.00 | 0.00 | 0.00 | 73 | 1010.9 |
| 20260506211018 | 40 | 302 | 13.0 | 17.0 | 0.00 | 0.00 | 0.00 | 73 | 1012.0 |
| 20260506210540 | 40 | 294 | 13.0 | 19.0 | 0.00 | 0.00 | 0.00 | 73 | 1011.9 |
| 20260506210020 | 40 | 301 | 14.0 | 19.0 | 0.00 | 0.00 | 0.00 | 72 | 1010.9 |
| 20260506210018 | 40 | 296 | 13.0 | 18.0 | 0.00 | 0.00 | 0.00 | 72 | 1011.9 |
| 20260506205529 | 40 | 288 | 10.0 | 16.0 | 0.00 | 0.00 | 0.00 | 71 | 1011.9 |
| 20260506205029 | 40 | 298 | 11.0 | 16.0 | 0.00 | 0.00 | 0.00 | 72 | 1011.9 |
| 20260506204518 | 40 | 281 | 10.0 | 19.0 | 0.00 | 0.00 | 0.00 | 72 | 1011.9 |
| 20260506204504 | 40 | 284 | 10.0 | 20.0 | 0.00 | 0.00 | 0.00 | 72 | 1011.0 |
| 20260506204018 | 40 | 290 | 14.0 | 19.0 | 0.00 | 0.00 | 0.00 | 70 | 1011.9 |